DMSP 5D-2 F13 DEB, 40442

Orbit data source: Space-Track

DMSP 5D-2 F13 DEB, 40442 is space debris in SSO originally from a launch on Fri, 24 Mar 1995 UTC launched from the Air Force Western Test Range (AFWTR). Debris objects in space refer to the collection of defunct objects orbiting the Earth. Examples of debris include non-operational satellites, rocket bodies, and fragments generated from explosions, collisions, or faulty payload assembly.

Loading next visibility...
Identifier
40442, 1995-015AU
Orbit
SSO
Country
Flag of USUS
Related business
Manufacturer
Unknown
Mission
Spacecraft
Bus & Motor
Unknown
Mass
Unknown
Launch date (UTC)
1995-03-24 (31 years ago)
Launch vehicle
Unknown
Launch site
Air Force Western Test Range (AFWTR)
Object type
Payload
Rocket body
Debris
Shape & HBR
Unknown shape, 0.2 m
Radar Cross Section
Small (<0.1 m²)

Expand to show TLE details & history
Last TLE update: 19 hours ago

TLE from 19 hours ago
0 DMSP 5D-2 F13 DEB
1 40442U 95015AU  25303.30809507  .00000146  00000-0  98658-4 0  9990
2 40442  98.8629 313.4203 0010858 183.2430 176.8674 14.14928209550433
Epoch: 2025-10-30T07:23Z
TLE epoch observation values (Epoch: 2025-10-30T07:23:39.414Z)
Latitude
-0.00005°
Longitude
163.63734°
Altitude
853.289 km
Speed
7.422 km/s
True Right ascension
20h 53m 40s
True Declination
0° 00' 00"
Sunlit
Object was in daylight at epoch
Visualization orbit readout
Latitude
Unknown
Longitude
Unknown
Altitude
Unknown
Speed
Unknown
Apparent Right ascension
Unknown
Apparent Declination
Unknown
Sunlit
N/A
Visualization observer readout
Local Sidereal Time
21:59:44
Azimuth
Unknown
Elevation
Unknown
Doppler factor
Unknown
Orbital elements
Apogee altitude
847.566 km
Perigee altitude
831.892 km
Semi-major axis
7,217.866 km
Eccentricity
0.00109
Inclination
98.8629°
RAAN
313.4203°
Arg. of periapsis
183.243°
True anomaly
176.87419°
Mean anomaly
176.8674°
Eccentric anomaly
176.8708°
Mean motion
3.5394 °/min
Orbital period
101.71 mins
BSTAR
0.000098658
Loading maneuver chart data...
Computing Atmospheric mass density...

Documentation

Showing up to 5 results
|